When you browse on this site, cookies collect data to enhance your experience and personalize the content and advertising you see.
Visit our Privacy Policy to learn more. By continuing to use the site, you agree to this use of cookies and data.
  • In Deutschland
  • Länderverzeichnis
  • Für 7 Tage
  • Wassertemperatur
  • Satellitenkarten
  • Wetterkarte
  • Widgets
  • user-avatar
    Anmelden

    Stündliche Wetter Luanda

    Heute, 21 Januar, Montag

    Zeit Temperatur Niederschläge Wind Luftdruck Luftfeuchtigkeit
    00:00 +28°C° 0 mm 2 m/S 755 mmHg 80%
    01:00 +28°C° 0 mm 1 m/S 755 mmHg 82%
    02:00 +28°C° 0 mm 1 m/S 754 mmHg 83%
    03:00 +27°C° 0 mm 1 m/S 754 mmHg 84%
    04:00 +25°C° 0 mm 0 m/S 754 mmHg 86%
    05:00 +27°C° 0 mm 1 m/S 755 mmHg 85%
    06:00 +27°C° 0 mm 1 m/S 755 mmHg 84%
    07:00 +28°C° 0 mm 1 m/S 755 mmHg 84%
    08:00 +29°C° 0 mm 1 m/S 755 mmHg 76%
    09:00 +31°C° 0 mm 1 m/S 756 mmHg 68%
    10:00 +32°C° 0 mm 1 m/S 756 mmHg 60%
    11:00 +34°C° 0 mm 2 m/S 755 mmHg 57%
    12:00 +35°C° 0 mm 3 m/S 755 mmHg 55%
    13:00 +35°C° 0 mm 5 m/S 754 mmHg 52%
    14:00 +35°C° 0 mm 5 m/S 754 mmHg 54%
    15:00 +34°C° 0 mm 5 m/S 753 mmHg 56%
    16:00 +34°C° 0 mm 5 m/S 752 mmHg 58%
    17:00 +33°C° 0 mm 5 m/S 753 mmHg 62%
    18:00 +30°C° 0 mm 4 m/S 753 mmHg 67%
    19:00 +29°C° 0 mm 3 m/S 753 mmHg 71%
    20:00 +29°C° 0 mm 3 m/S 754 mmHg 72%
    21:00 +29°C° 0 mm 3 m/S 754 mmHg 73%
    22:00 +29°C° 0 mm 2 m/S 755 mmHg 74%
    23:00 +28°C° 0 mm 2 m/S 755 mmHg 75%

    Morgen, 22 Januar, Dienstag

    Zeit Temperatur Niederschläge Wind Luftdruck Luftfeuchtigkeit
    00:00 +28°C° 0 mm 2 m/S 755 mmHg 76%
    01:00 +28°C° 0 mm 2 m/S 754 mmHg 77%
    02:00 +28°C° 0 mm 2 m/S 754 mmHg 78%
    03:00 +28°C° 0 mm 2 m/S 754 mmHg 80%
    04:00 +27°C° 0 mm 2 m/S 754 mmHg 81%
    05:00 +28°C° 0 mm 2 m/S 754 mmHg 81%
    06:00 +28°C° 0 mm 2 m/S 754 mmHg 80%
    07:00 +28°C° 0 mm 2 m/S 755 mmHg 80%
    08:00 +29°C° 0 mm 2 m/S 755 mmHg 74%
    09:00 +30°C° 0 mm 2 m/S 755 mmHg 67%
    10:00 +31°C° 0 mm 1 m/S 755 mmHg 61%
    11:00 +32°C° 0 mm 2 m/S 755 mmHg 59%
    12:00 +33°C° 0 mm 3 m/S 754 mmHg 57%
    13:00 +34°C° 0 mm 3 m/S 754 mmHg 55%
    14:00 +34°C° 0 mm 4 m/S 753 mmHg 57%
    15:00 +33°C° 0 mm 5 m/S 753 mmHg 59%
    16:00 +33°C° 0 mm 5 m/S 752 mmHg 60%
    17:00 +32°C° 0 mm 5 m/S 752 mmHg 64%
    18:00 +30°C° 0 mm 5 m/S 753 mmHg 68%
    19:00 +29°C° 0 mm 5 m/S 753 mmHg 72%
    20:00 +29°C° 0 mm 5 m/S 754 mmHg 74%
    21:00 +29°C° 0 mm 4 m/S 755 mmHg 76%
    22:00 +28°C° 0 mm 4 m/S 755 mmHg 78%
    23:00 +28°C° 0 mm 4 m/S 755 mmHg 80%

    übermorgen, 23 Januar, Mittwoch

    Zeit Temperatur Niederschläge Wind Luftdruck Luftfeuchtigkeit
    00:00 +28°C° 0 mm 4 m/S 755 mmHg 81%
    01:00 +27°C° 0 mm 3 m/S 754 mmHg 83%
    02:00 +27°C° 0 mm 3 m/S 754 mmHg 83%
    03:00 +27°C° 0 mm 3 m/S 754 mmHg 83%
    04:00 +27°C° 0 mm 3 m/S 753 mmHg 84%
    05:00 +27°C° 0 mm 3 m/S 754 mmHg 82%
    06:00 +27°C° 0 mm 3 m/S 754 mmHg 81%
    07:00 +27°C° 0 mm 3 m/S 755 mmHg 79%
    08:00 +28°C° 0 mm 3 m/S 755 mmHg 74%
    09:00 +29°C° 0 mm 2 m/S 755 mmHg 69%
    10:00 +31°C° 0 mm 2 m/S 755 mmHg 64%
    11:00 +32°C° 0 mm 2 m/S 755 mmHg 58%
    12:00 +34°C° 0 mm 3 m/S 754 mmHg 53%
    13:00 +35°C° 0 mm 3 m/S 753 mmHg 47%
    14:00 +35°C° 0 mm 4 m/S 753 mmHg 49%
    15:00 +34°C° 0 mm 4 m/S 752 mmHg 50%
    16:00 +34°C° 0 mm 5 m/S 752 mmHg 51%
    17:00 +33°C° 0 mm 5 m/S 752 mmHg 57%
    18:00 +32°C° 0 mm 5 m/S 752 mmHg 63%
    19:00 +29°C° 0 mm 4 m/S 753 mmHg 69%
    20:00 +29°C° 0 mm 4 m/S 753 mmHg 72%
    21:00 +29°C° 0 mm 3 m/S 754 mmHg 75%
    22:00 +28°C° 0 mm 3 m/S 754 mmHg 78%
    23:00 +28°C° 0 mm 3 m/S 754 mmHg 80%

    24 Januar, Donnerstag

    Zeit Temperatur Niederschläge Wind Luftdruck Luftfeuchtigkeit
    00:00 +28°C° 0 mm 3 m/S 754 mmHg 82%
    01:00 +27°C° 0 mm 3 m/S 753 mmHg 84%
    02:00 +27°C° 0 mm 3 m/S 753 mmHg 85%
    03:00 +27°C° 0 mm 3 m/S 752 mmHg 86%
    04:00 +27°C° 0 mm 3 m/S 752 mmHg 87%
    05:00 +27°C° 0.1 mm 3 m/S 752 mmHg 87%
    06:00 +27°C° 0.1 mm 2 m/S 753 mmHg 86%
    07:00 +27°C° 0.1 mm 2 m/S 753 mmHg 85%
    08:00 +29°C° 0.1 mm 2 m/S 753 mmHg 77%
    09:00 +30°C° 0.1 mm 2 m/S 753 mmHg 68%
    10:00 +32°C° 0.1 mm 1 m/S 754 mmHg 60%
    11:00 +34°C° 0 mm 2 m/S 753 mmHg 56%
    12:00 +35°C° 0 mm 3 m/S 752 mmHg 52%
    13:00 +36°C° 0 mm 3 m/S 751 mmHg 48%
    14:00 +36°C° 0 mm 4 m/S 751 mmHg 50%
    15:00 +36°C° 0 mm 5 m/S 750 mmHg 53%
    16:00 +35°C° 0 mm 6 m/S 750 mmHg 55%
    17:00 +34°C° 0 mm 6 m/S 750 mmHg 62%
    18:00 +32°C° 0 mm 6 m/S 750 mmHg 68%
    19:00 +29°C° 0 mm 5 m/S 751 mmHg 75%
    20:00 +29°C° 0 mm 5 m/S 751 mmHg 77%
    21:00 +29°C° 0 mm 4 m/S 752 mmHg 78%
    22:00 +28°C° 0 mm 4 m/S 753 mmHg 79%
    23:00 +28°C° 0 mm 3 m/S 752 mmHg 80%

    25 Januar, Freitag

    Zeit Temperatur Niederschläge Wind Luftdruck Luftfeuchtigkeit
    00:00 +28°C° 0 mm 3 m/S 752 mmHg 82%
    01:00 +28°C° 0 mm 3 m/S 752 mmHg 83%
    02:00 +28°C° 0.1 mm 2 m/S 752 mmHg 83%
    03:00 +27°C° 0.1 mm 2 m/S 752 mmHg 83%
    04:00 +27°C° 0.1 mm 2 m/S 752 mmHg 83%
    05:00 +28°C° 0.1 mm 2 m/S 752 mmHg 82%
    06:00 +28°C° 0.1 mm 2 m/S 753 mmHg 82%
    07:00 +28°C° 0.1 mm 2 m/S 753 mmHg 81%
    08:00 +29°C° 0 mm 1 m/S 753 mmHg 72%
    09:00 +31°C° 0 mm 1 m/S 753 mmHg 64%
    10:00 +31°C° 0 mm 0 m/S 753 mmHg 55%
    11:00 +35°C° 0 mm 2 m/S 753 mmHg 53%
    12:00 +36°C° 0 mm 3 m/S 752 mmHg 50%
    13:00 +36°C° 0 mm 4 m/S 751 mmHg 47%
    14:00 +35°C° 0 mm 5 m/S 751 mmHg 51%
    15:00 +35°C° 0 mm 5 m/S 750 mmHg 55%
    16:00 +34°C° 0 mm 6 m/S 750 mmHg 58%
    17:00 +33°C° 0 mm 5 m/S 750 mmHg 63%
    18:00 +32°C° 0 mm 5 m/S 751 mmHg 67%
    19:00 +29°C° 0 mm 4 m/S 751 mmHg 71%
    20:00 +29°C° 0 mm 4 m/S 752 mmHg 73%
    21:00 +29°C° 0 mm 4 m/S 753 mmHg 74%
    22:00 +29°C° 0 mm 4 m/S 754 mmHg 76%
    23:00 +28°C° 0 mm 3 m/S 753 mmHg 76%

    26 Januar, Samstag

    Zeit Temperatur Niederschläge Wind Luftdruck Luftfeuchtigkeit
    00:00 +28°C° 0 mm 3 m/S 753 mmHg 77%
    01:00 +28°C° 0 mm 3 m/S 753 mmHg 78%
    02:00 +28°C° 0 mm 2 m/S 753 mmHg 77%
    03:00 +28°C° 0 mm 2 m/S 753 mmHg 77%
    04:00 +28°C° 0 mm 2 m/S 753 mmHg 76%
    05:00 +28°C° 0 mm 1 m/S 753 mmHg 75%
    06:00 +28°C° 0 mm 1 m/S 754 mmHg 75%
    07:00 +29°C° 0 mm 1 m/S 754 mmHg 74%
    08:00 +29°C° 0 mm 1 m/S 754 mmHg 70%
    09:00 +30°C° 0 mm 1 m/S 755 mmHg 66%
    10:00 +31°C° 0 mm 1 m/S 755 mmHg 61%
    11:00 +32°C° 0 mm 2 m/S 754 mmHg 57%
    12:00 +34°C° 0 mm 3 m/S 754 mmHg 53%
    13:00 +35°C° 0 mm 4 m/S 753 mmHg 49%
    14:00 +35°C° 0 mm 5 m/S 752 mmHg 51%
    15:00 +34°C° 0 mm 5 m/S 752 mmHg 54%
    16:00 +34°C° 0 mm 6 m/S 752 mmHg 56%
    17:00 +33°C° 0 mm 5 m/S 752 mmHg 62%
    18:00 +30°C° 0 mm 5 m/S 753 mmHg 67%
    19:00 +29°C° 0 mm 5 m/S 753 mmHg 72%
    20:00 +29°C° 0 mm 4 m/S 753 mmHg 72%
    21:00 +29°C° 0 mm 4 m/S 754 mmHg 73%
    22:00 +28°C° 0 mm 4 m/S 754 mmHg 74%
    23:00 +28°C° 0 mm 4 m/S 754 mmHg 75%
    Mehr zeigen